Time,TemperatureF,DewpointF,PressureIn,WindDirection,WindDirectionDegrees,WindSpeedMPH,WindSpeedGustMPH,Humidity,HourlyPrecipIn,Conditions,Clouds,dailyrainin,SoftwareType,DateUTC
2013-06-09 01:00:00,63.0,-99.9,-100.00,North,-999,-999.0,-999.0,-999,-99.99,,,-99.99,,2013-06-09 08:00:00,
2013-06-09 01:53:00,63.0,-99.9,-100.00,North,-999,-999.0,-999.0,-999,-99.99,,,-99.99,,2013-06-09 08:53:00,
2013-06-09 02:00:00,59.0,-99.9,-100.00,North,-999,-999.0,-999.0,-999,-99.99,,,-99.99,,2013-06-09 09:00:00,
2013-06-09 02:53:00,59.0,-99.9,-100.00,North,-999,-999.0,-999.0,-999,-99.99,,,-99.99,,2013-06-09 09:53:00,
2013-06-09 03:00:00,59.0,-99.9,-100.00,North,-999,-999.0,-999.0,-999,-99.99,,,-99.99,,2013-06-09 10:00:00,
2013-06-09 03:53:00,59.0,-99.9,-100.00,North,-999,-999.0,-999.0,-999,-99.99,,,-99.99,,2013-06-09 10:53:00,
2013-06-09 04:00:00,57.0,-99.9,-100.00,North,-999,-999.0,-999.0,-999,-99.99,,,-99.99,,2013-06-09 11:00:00,
2013-06-09 04:53:00,57.0,-99.9,-100.00,North,-999,-999.0,-999.0,-999,-99.99,,,-99.99,,2013-06-09 11:53:00,
2013-06-09 05:00:00,55.0,-99.9,-100.00,North,-999,-999.0,-999.0,-999,-99.99,,,-99.99,,2013-06-09 12:00:00,
2013-06-09 05:53:00,55.0,-99.9,-100.00,North,-999,-999.0,-999.0,-999,-99.99,,,-99.99,,2013-06-09 12:53:00,
2013-06-09 06:00:00,56.0,-99.9,-100.00,North,-999,-999.0,-999.0,-999,-99.99,,,-99.99,,2013-06-09 13:00:00,
2013-06-09 06:52:00,56.0,-99.9,-100.00,North,-999,-999.0,-999.0,-999,-99.99,,,-99.99,,2013-06-09 13:52:00,
2013-06-09 07:00:00,56.0,-99.9,-100.00,North,-999,-999.0,-999.0,-999,-99.99,,,0.00,,2013-06-09 14:00:00,
2013-06-09 07:52:00,56.0,-99.9,-100.00,North,-999,-999.0,-999.0,-999,-99.99,,,0.00,,2013-06-09 14:52:00,
2013-06-09 08:00:00,62.0,-99.9,-100.00,North,-999,-999.0,-999.0,-999,-99.99,,,-99.99,,2013-06-09 15:00:00,
2013-06-09 08:53:00,62.0,-99.9,-100.00,North,-999,-999.0,-999.0,-999,-99.99,,,-99.99,,2013-06-09 15:53:00,
2013-06-09 09:00:00,71.0,-99.9,-100.00,North,-999,-999.0,-999.0,-999,-99.99,,,-99.99,,2013-06-09 16:00:00,
2013-06-09 09:53:00,71.0,-99.9,-100.00,North,-999,-999.0,-999.0,-999,-99.99,,,-99.99,,2013-06-09 16:53:00,
2013-06-09 10:00:00,72.0,-99.9,-100.00,North,-999,-999.0,-999.0,-999,-99.99,,,-99.99,,2013-06-09 17:00:00,
2013-06-09 10:53:00,72.0,-99.9,-100.00,North,-999,-999.0,-999.0,-999,-99.99,,,-99.99,,2013-06-09 17:53:00,
2013-06-09 11:00:00,74.0,-99.9,-100.00,North,-999,-999.0,-999.0,-999,-99.99,,,-99.99,,2013-06-09 18:00:00,
2013-06-09 11:52:00,74.0,-99.9,-100.00,North,-999,-999.0,-999.0,-999,-99.99,,,-99.99,,2013-06-09 18:52:00,
2013-06-09 13:00:00,66.0,-99.9,-100.00,North,-999,-999.0,-999.0,-999,-99.99,,,0.00,,2013-06-09 20:00:00,
2013-06-09 13:53:00,66.0,-99.9,-100.00,North,-999,-999.0,-999.0,-999,-99.99,,,0.00,,2013-06-09 20:53:00,
2013-06-09 14:00:00,51.0,-99.9,-100.00,North,-999,-999.0,-999.0,-999,-99.99,,,0.03,,2013-06-09 21:00:00,
2013-06-09 14:53:00,51.0,-99.9,-100.00,North,-999,-999.0,-999.0,-999,-99.99,,,0.03,,2013-06-09 21:53:00,
2013-06-09 15:00:00,47.0,-99.9,-100.00,North,-999,-999.0,-999.0,-999,-99.99,,,0.04,,2013-06-09 22:00:00,
2013-06-09 15:53:00,47.0,-99.9,-100.00,North,-999,-999.0,-999.0,-999,-99.99,,,0.04,,2013-06-09 22:53:00,
2013-06-09 16:00:00,52.0,-99.9,-100.00,North,-999,-999.0,-999.0,-999,-99.99,,,0.05,,2013-06-09 23:00:00,
2013-06-09 16:52:00,52.0,-99.9,-100.00,North,-999,-999.0,-999.0,-999,-99.99,,,0.05,,2013-06-09 23:52:00,
2013-06-09 17:00:00,56.0,-99.9,-100.00,North,-999,-999.0,-999.0,-999,-99.99,,,0.05,,2013-06-10 00:00:00,
2013-06-09 17:53:00,56.0,-99.9,-100.00,North,-999,-999.0,-999.0,-999,-99.99,,,0.05,,2013-06-10 00:53:00,
2013-06-09 19:00:00,58.0,-99.9,-100.00,North,-999,-999.0,-999.0,-999,-99.99,,,0.04,,2013-06-10 02:00:00,
2013-06-09 19:52:00,58.0,-99.9,-100.00,North,-999,-999.0,-999.0,-999,-99.99,,,0.04,,2013-06-10 02:52:00,
2013-06-09 20:00:00,54.0,-99.9,-100.00,North,-999,-999.0,-999.0,-999,-99.99,,,0.04,,2013-06-10 03:00:00,
2013-06-09 20:53:00,54.0,-99.9,-100.00,North,-999,-999.0,-999.0,-999,-99.99,,,0.04,,2013-06-10 03:53:00,
2013-06-09 21:00:00,52.0,-99.9,-100.00,North,-999,-999.0,-999.0,-999,-99.99,,,0.03,,2013-06-10 04:00:00,
2013-06-09 21:53:00,52.0,-99.9,-100.00,North,-999,-999.0,-999.0,-999,-99.99,,,0.03,,2013-06-10 04:53:00,
2013-06-09 22:00:00,54.0,-99.9,-100.00,North,-999,-999.0,-999.0,-999,-99.99,,,0.04,,2013-06-10 05:00:00,
2013-06-09 22:52:00,54.0,-99.9,-100.00,North,-999,-999.0,-999.0,-999,-99.99,,,0.04,,2013-06-10 05:52:00,
2013-06-09 23:00:00,52.0,-99.9,-100.00,North,-999,-999.0,-999.0,-999,-99.99,,,0.04,,2013-06-10 06:00:00,
2013-06-09 23:53:00,52.0,-99.9,-100.00,North,-999,-999.0,-999.0,-999,-99.99,,,0.04,,2013-06-10 06:53:00,